カタログに戻る

STARLINK-34195

運用中通信VLEO
NORAD 64142·PAYLOAD·🇺🇸 United States

打ち上げ May 24, 2025 から Cape Canaveral Space Force Station

Loading…

次のパス (今後24時間)

TLE

最新Source: CelesTrak SupGP

元期: Sep 15, 2026, 02:40 UTC

1 64142C 25111V   26258.11159722  .00009465  00000+0  34275-3 0  2583
2 64142  43.0003  87.8880 0001471 271.1552 159.9723 15.27578998    12

AllMySatでSTARLINK-34195をリアルタイム追跡

Download on the App Store